Regional Weather Roundup
Issued by NWS Goodland, KS

Home | Current Version | Previous Version | Graphics & Text | Print | Product List | Glossary On
Versions: 1 2 3 4 5 6 7 8 9 10 11 12 13 14 15 16 17 18 19 20 21 22 23 24 25 26 27 28 29 30 31 32 33 34 35 36 37 38 39 40 41 42 43 44 45 46 47 48 49 50
000
ASUS43 KGLD 250559
RWRGLD

GOODLAND FORECAST AREA HOURLY WEATHER ROUNDUP
NATIONAL WEATHER SERVICE GOODLAND KS
1200 AM MDT FRI JUL 25 2014

...OFFICIAL OBSERVATIONS...

CITY           SKY/WX    TMP DP  RH WIND       PRES   REMARKS
GOODLAND KS    MOCLDY    77  55  46 SW7       29.94S
HILL CITY KS   MOCLDY    85  67  54 S15G28    29.85R
IMPERIAL NEB   PTCLDY    70  59  68 W15G22    29.88R
MCCOOK NEB     PTCLDY    80  62  54 S9        29.84S
AKRON CO       PTCLDY    71  53  52 SW7       30.00F
BURLINGTON CO  CLOUDY    79  51  37 N5        29.98F
LIMON CO       MOCLDY    68  57  68 W7        30.06F
$$

...UNOFFICIAL OBSERVATIONS...

CITY           SKY/WX    TMP DP  RH WIND       PRES   REMARKS
COLBY KS       CLEAR     82  57  42 S13       29.92R
GOVE KS          N/A     83  32  16 MISG        N/A
LENORA KS        N/A     83  32  16 MISG        N/A
NORTON KS      CLEAR     82  63  51 S14G20    29.84S
SHARON SPRINGS   N/A     82  56  40 S15G22      N/A
WAKEENEY KS      N/A     83  63  49 MISG        N/A
KIT CARSON CO    N/A     80  51  35 CALM        N/A
YUMA CO          N/A     67  57  70 CALM        N/A
$$



USA.gov is the U.S. government's official web portal to all federal, state and local government web resources and services.